Wind_Speed
23 22 21 20 20 20 20 20 19 19 20 20 20 20 19 19 17 16 15 16 16 17 18 20 22 24 25 25 26 28 29 29 30 30 30 32 33 34 34 33 34 37
23 22 20 20 20 20 21 21 20 20 21 20 20 20 19 18 16 16 16 17 17 17 18 19 20 22 24 25 26 27 28 29 31 32 32 32 32 33 35 33 33 35
23 21 19 19 19 20 20 20 21 21 21 21 21 19 18 16 16 17 17 17 18 18 19 19 20 21 22 24 26 26 25 25 28 31 32 32 33 33 34 34 33 33
22 20 19 19 19 19 20 20 20 21 21 22 21 18 16 16 17 17 17 17 18 18 19 20 21 21 21 23 25 25 24 24 25 28 30 30 31 32 33 35 35 34
23 21 19 19 19 19 20 20 20 20 20 21 20 17 16 17 16 16 17 17 18 18 18 20 21 21 22 22 23 24 24 24 24 27 30 30 29 30 32 34 35 34
23 21 20 20 20 20 20 21 20 19 19 20 19 18 17 16 16 16 17 18 18 18 18 19 19 20 21 21 21 22 23 24 25 27 30 31 31 30 31 33 34 34
23 22 21 21 20 21 21 20 19 19 18 19 19 17 16 16 15 16 17 18 18 18 18 18 17 18 19 19 19 21 22 23 25 26 27 29 30 30 30 31 33 34
24 23 22 21 20 20 20 19 19 18 18 19 19 17 16 16 16 16 17 17 18 19 19 19 19 18 18 18 19 19 20 21 22 24 26 27 28 29 29 29 31 33
23 22 21 20 19 19 19 19 20 20 19 20 19 17 16 16 16 16 17 17 18 19 20 20 20 18 17 18 19 19 20 21 22 24 27 28 28 28 28 30 32 33
22 21 21 20 19 19 19 20 21 22 21 20 19 18 16 16 17 17 17 18 19 19 19 19 19 18 17 18 19 20 20 20 22 24 26 28 28 28 29 32 34 35
21 21 20 20 20 20 21 21 22 23 22 20 19 18 17 17 17 18 18 19 21 21 20 20 20 19 18 19 20 21 21 22 23 26 28 29 29 29 30 33 36 36
21 20 20 21 21 21 22 22 22 22 21 19 18 17 18 18 18 18 19 21 22 23 22 21 20 20 20 20 21 23 24 25 27 29 30 30 30 30 31 33 37 37
20 20 20 21 22 22 22 22 21 20 19 19 18 18 18 19 19 18 19 21 23 24 24 23 21 21 22 22 22 24 25 26 28 30 31 32 31 30 32 34 37 38
19 20 20 21 22 23 22 20 19 19 19 19 19 19 18 18 19 19 19 21 24 25 25 24 23 22 23 23 24 25 26 27 29 30 32 33 31 31 34 37 38 37
19 20 21 22 22 22 20 18 18 19 20 19 20 20 19 18 19 20 19 21 24 25 25 25 24 23 24 24 25 27 27 28 29 30 32 33 31 32 36 38 37 32
19 21 22 22 21 19 18 17 18 19 19 19 20 20 19 19 20 20 20 21 24 25 26 25 24 24 25 25 26 28 28 28 28 29 31 31 31 34 37 39 37 28
19 21 22 21 19 18 18 17 18 19 20 20 21 20 19 20 20 20 19 21 24 25 25 25 25 24 25 26 27 28 29 28 27 28 29 30 32 35 37 40 38 28
21 22 22 21 20 19 18 17 18 20 21 22 21 21 20 19 20 20 20 21 24 24 24 24 25 25 26 26 27 28 28 27 25 25 27 29 31 34 37 39 37 29
22 23 23 22 21 20 19 18 17 19 21 21 21 21 20 20 19 19 19 20 22 22 22 23 24 25 25 25 26 27 26 25 23 23 25 27 30 33 36 36 36 32
22 23 23 22 21 20 20 18 17 19 20 21 21 20 20 20 19 18 18 18 19 20 21 21 23 24 23 23 24 25 24 23 21 21 23 26 29 32 34 34 35 36
23 23 23 22 21 21 21 19 19 20 21 21 21 20 20 19 18 18 18 17 18 19 19 19 20 21 21 21 22 24 23 22 21 20 22 25 27 30 32 33 35 36
24 24 23 22 22 22 22 21 20 21 22 22 21 20 19 19 19 18 17 16 16 17 18 17 18 19 19 19 21 22 23 21 20 20 21 23 25 28 30 32 34 35
25 25 24 24 24 24 24 23 22 23 23 23 22 20 20 19 18 17 17 16 16 17 17 16 17 17 17 17 19 22 22 20 19 19 20 22 24 26 27 30 33 34
26 26 26 26 26 26 25 25 24 24 24 24 22 20 20 20 19 19 18 16 16 16 17 16 16 16 16 17 19 20 20 19 18 17 19 21 23 25 26 28 30 34
27 27 27 28 28 28 28 28 27 25 26 26 24 22 22 21 21 22 22 19 17 16 16 17 15 14 16 18 19 20 20 19 17 17 18 20 21 23 24 25 27 31
28 28 29 29 30 31 30 30 29 28 27 27 26 25 25 24 24 25 24 23 21 17 15 15 15 15 17 18 19 20 19 18 18 18 19 19 20 22 23 23 25 27
Wind_Direction
316 313 311 308 306 307 309 312 316 318 318 318 318 318 318 320 320 318 315 312 308 303 298 295 294 293 291 288 286 285 285 285 284 282 280 278 277 278 277 273 270 267
319 316 313 310 309 309 312 315 319 320 320 321 321 321 323 323 324 324 323 321 318 312 306 302 299 297 295 294 291 289 288 288 288 286 285 283 281 280 281 280 276 271
321 317 312 310 310 310 313 317 319 320 321 321 321 322 324 325 325 326 324 321 318 314 310 306 303 300 297 296 294 292 291 290 289 288 286 285 285 284 283 282 280 276
322 317 312 309 309 311 314 317 318 319 319 319 320 321 322 324 324 324 321 319 317 314 311 308 305 302 297 295 293 292 292 291 290 289 288 287 285 283 283 282 281 280
322 318 313 310 310 311 314 315 315 317 317 317 319 320 320 322 322 321 319 318 318 317 314 311 308 304 298 293 291 290 290 290 289 290 291 292 290 286 285 283 281 280
322 318 314 311 311 312 314 315 315 316 316 318 319 318 319 320 319 318 317 317 318 317 315 313 310 306 299 294 290 287 287 289 290 292 293 295 296 293 290 287 284 280
321 318 315 312 313 314 315 315 315 316 317 318 318 316 315 317 316 315 315 316 317 316 316 316 314 310 304 298 293 290 290 292 294 297 300 300 301 300 298 292 287 282
320 317 315 314 315 316 316 316 316 317 318 317 316 314 312 312 311 311 312 313 314 315 317 320 321 320 316 308 301 298 299 301 303 304 305 304 303 304 304 299 290 284
319 317 316 316 317 318 317 316 316 316 316 316 314 311 308 307 306 307 308 310 313 314 316 319 322 323 320 313 307 305 306 308 309 309 309 307 306 305 307 307 299 288
319 318 318 318 318 317 315 314 313 313 313 313 312 310 306 304 303 304 306 309 311 312 311 313 317 318 317 313 309 308 309 311 312 312 314 313 311 309 310 311 307 297
319 319 319 319 318 316 314 312 310 309 310 311 311 311 308 306 304 304 305 307 309 309 308 308 311 314 314 312 311 311 311 312 313 315 316 315 314 315 315 313 312 305
318 319 319 319 317 316 314 311 308 307 308 309 310 311 311 310 308 305 304 305 306 306 305 305 307 309 311 311 311 312 312 313 315 316 316 315 315 316 316 314 314 310
317 318 319 319 317 317 315 311 308 307 306 307 309 312 313 313 309 305 303 302 303 303 302 302 303 305 307 309 310 310 311 313 316 317 315 313 314 317 317 317 315 310
316 318 319 319 318 316 314 312 308 307 306 306 308 310 312 312 308 304 301 298 298 299 299 298 300 301 304 307 309 309 310 313 316 317 315 313 315 321 322 322 318 311
316 318 319 319 319 316 315 313 309 305 306 308 309 310 311 310 308 305 302 299 297 297 295 295 296 299 302 305 307 308 309 313 317 318 315 313 318 325 326 326 324 314
318 322 323 322 320 317 315 314 308 304 306 310 311 310 311 311 310 308 305 301 299 296 294 294 295 298 301 304 306 307 309 313 317 317 315 315 321 328 330 332 331 318
322 325 326 323 321 319 318 315 309 304 306 311 312 311 312 313 312 309 305 301 299 297 294 294 295 298 302 305 307 307 309 314 316 315 315 317 323 330 334 336 335 323
323 324 325 323 321 320 319 316 309 305 307 310 312 312 313 314 311 308 305 303 301 299 296 295 296 298 302 306 308 308 310 313 315 314 314 317 324 330 335 339 340 331
322 323 322 321 320 319 319 317 311 308 310 310 310 311 312 313 310 306 305 304 303 302 299 297 297 299 304 309 310 310 312 313 313 312 312 316 323 329 335 343 347 344
323 324 322 320 319 318 319 319 313 310 311 310 309 309 311 312 309 305 304 303 301 300 300 300 300 302 308 313 314 314 315 315 313 310 311 315 320 326 334 343 348 346
324 324 323 321 319 318 318 316 311 309 310 309 307 307 310 310 306 303 303 302 300 299 301 302 301 303 310 316 316 316 318 319 316 311 310 312 316 323 333 340 343 345
322 323 322 320 319 318 317 312 307 306 306 305 305 305 308 308 304 303 304 303 301 301 301 303 302 305 313 317 316 318 320 321 319 313 310 309 312 320 330 337 341 344
319 321 320 319 318 317 315 310 305 304 303 301 302 303 304 304 302 301 302 300 299 299 301 304 305 309 316 319 317 318 320 321 319 314 312 310 310 316 324 332 339 342
315 318 318 317 316 316 314 310 305 301 299 297 298 299 299 299 298 296 295 295 295 297 299 300 302 309 318 321 319 317 318 320 318 314 314 311 309 313 319 327 334 339
312 315 315 314 315 315 313 311 307 304 301 300 300 300 300 301 301 298 296 295 294 295 295 294 300 312 319 320 319 317 317 320 319 314 313 313 310 311 315 323 329 334
309 311 311 311 313 314 313 311 309 308 306 305 304 303 303 304 305 303 302 300 299 299 297 298 308 319 319 317 318 317 318 321 321 317 315 316 316 315 315 320 324 326
Height
3178 3177 3175 3174 3172 3171 3170 3169 3168 3167 3166 3165 3163 3162 3161 3159 3158 3157 3156 3155 3154 3152 3151 3149 3148 3146 3145 3143 3142 3141 3140 3139 3138 3137 3137 3136 3135 3135 3133 3133 3133 3132
3176 3175 3173 3171 3170 3168 3167 3166 3165 3164 3163 3162 3160 3159 3158 3156 3155 3154 3153 3152 3151 3149 3148 3147 3145 3144 3142 3140 3139 3138 3137 3136 3135 3133 3132 3132 3131 3130 3129 3129 3129 3128
3175 3173 3171 3170 3168 3167 3165 3164 3163 3162 3161 3159 3158 3157 3155 3154 3153 3152 3151 3150 3148 3147 3145 3144 3143 3141 3140 3138 3136 3135 3134 3132 3131 3129 3129 3128 3127 3126 3125 3123 3123 3123
3173 3171 3170 3168 3167 3165 3164 3163 3162 3161 3159 3157 3156 3155 3154 3152 3151 3150 3149 3147 3146 3145 3143 3142 3140 3139 3137 3135 3133 3132 3130 3129 3128 3126 3124 3124 3124 3122 3121 3119 3118 3119
3171 3169 3168 3166 3165 3163 3162 3161 3160 3159 3157 3155 3154 3153 3152 3150 3149 3148 3146 3145 3144 3143 3142 3140 3138 3136 3134 3132 3131 3129 3128 3126 3125 3122 3120 3120 3119 3119 3117 3115 3114 3114
3169 3167 3166 3164 3162 3161 3160 3159 3158 3156 3155 3153 3152 3151 3149 3148 3147 3146 3144 3143 3142 3141 3140 3138 3136 3134 3132 3129 3128 3126 3125 3123 3122 3120 3118 3116 3115 3114 3114 3112 3110 3109
3167 3165 3164 3162 3160 3159 3157 3156 3155 3154 3152 3151 3150 3148 3147 3146 3145 3144 3142 3141 3139 3138 3136 3135 3133 3131 3129 3127 3126 3124 3122 3121 3119 3117 3116 3114 3111 3110 3109 3107 3105 3104
3165 3163 3162 3160 3158 3156 3155 3154 3152 3151 3150 3148 3147 3146 3145 3144 3142 3141 3140 3138 3137 3135 3133 3131 3130 3128 3126 3124 3123 3121 3119 3118 3116 3114 3112 3111 3108 3106 3104 3103 3101 3099
3163 3161 3160 3158 3156 3154 3153 3152 3150 3149 3148 3146 3145 3144 3143 3141 3140 3139 3137 3136 3134 3132 3130 3128 3126 3125 3124 3122 3120 3118 3116 3115 3113 3111 3109 3107 3105 3103 3100 3098 3096 3094
3161 3159 3157 3156 3154 3153 3151 3150 3148 3147 3145 3144 3143 3141 3140 3139 3138 3136 3134 3133 3131 3129 3127 3125 3123 3122 3121 3119 3117 3115 3114 3112 3110 3108 3106 3103 3101 3099 3096 3094 3091 3089
3158 3157 3155 3154 3152 3151 3149 3148 3146 3145 3143 3142 3141 3139 3138 3136 3135 3133 3132 3130 3128 3126 3125 3123 3121 3119 3118 3116 3114 3113 3111 3109 3107 3105 3102 3100 3098 3096 3093 3090 3086 3083
3156 3155 3153 3152 3150 3149 3147 3145 3144 3142 3141 3140 3138 3137 3135 3134 3132 3131 3129 3128 3126 3124 3122 3120 3118 3117 3115 3113 3112 3110 3108 3106 3104 3102 3099 3097 3095 3093 3090 3087 3082 3078
3154 3153 3151 3149 3148 3146 3145 3143 3141 3140 3139 3137 3136 3134 3133 3132 3130 3129 3127 3125 3123 3121 3119 3117 3116 3114 3112 3111 3109 3107 3106 3103 3101 3099 3096 3094 3092 3089 3086 3083 3078 3074
3152 3151 3149 3147 3146 3144 3142 3141 3139 3138 3137 3135 3134 3132 3131 3129 3128 3126 3125 3123 3121 3119 3117 3115 3113 3112 3110 3109 3107 3105 3103 3101 3098 3096 3093 3090 3088 3086 3082 3078 3073 3068
3150 3149 3147 3145 3143 3141 3140 3139 3137 3136 3134 3133 3131 3130 3128 3127 3125 3124 3122 3121 3118 3116 3114 3112 3111 3109 3108 3106 3104 3102 3100 3098 3096 3093 3090 3087 3085 3082 3078 3073 3068 3063
3148 3147 3145 3143 3141 3139 3138 3137 3135 3134 3132 3131 3129 3127 3126 3124 3123 3121 3120 3118 3116 3114 3112 3110 3108 3107 3105 3104 3102 3099 3097 3095 3093 3090 3087 3084 3081 3078 3074 3069 3064 3060
3146 3144 3142 3140 3139 3137 3136 3135 3133 3131 3130 3128 3126 3125 3123 3122 3120 3118 3117 3116 3113 3111 3109 3107 3105 3104 3103 3101 3099 3096 3094 3092 3090 3088 3085 3082 3078 3075 3070 3066 3061 3057
3144 3142 3140 3138 3137 3135 3134 3133 3131 3129 3128 3126 3124 3123 3121 3119 3117 3116 3114 3113 3111 3109 3107 3105 3103 3101 3100 3098 3096 3094 3091 3089 3087 3085 3082 3079 3076 3072 3068 3064 3059 3055
3141 3139 3138 3136 3134 3133 3132 3131 3129 3127 3125 3123 3122 3120 3118 3117 3115 3113 3112 3110 3108 3107 3105 3103 3101 3099 3098 3096 3093 3091 3089 3087 3085 3082 3080 3077 3073 3070 3066 3062 3058 3054
3139 3137 3135 3134 3132 3130 3129 3128 3126 3124 3123 3121 3119 3118 3116 3115 3113 3111 3109 3108 3106 3104 3102 3101 3098 3096 3095 3093 3091 3088 3086 3084 3082 3080 3077 3074 3071 3068 3065 3061 3057 3053
3136 3135 3133 3131 3130 3128 3127 3125 3123 3122 3120 3119 3117 3115 3114 3112 3111 3109 3107 3105 3104 3102 3100 3098 3096 3094 3092 3091 3088 3086 3084 3081 3079 3077 3075 3072 3070 3067 3063 3059 3055 3052
3134 3132 3131 3129 3127 3126 3124 3122 3120 3119 3117 3116 3115 3113 3111 3110 3108 3106 3104 3103 3101 3099 3097 3096 3094 3092 3090 3088 3086 3084 3081 3079 3077 3075 3072 3070 3068 3065 3062 3058 3054 3050
3132 3130 3128 3127 3125 3123 3121 3120 3118 3116 3115 3113 3112 3110 3109 3107 3105 3103 3101 3100 3098 3097 3095 3093 3091 3089 3087 3086 3083 3081 3079 3077 3075 3072 3070 3068 3066 3064 3061 3058 3054 3049
3129 3127 3126 3124 3122 3121 3119 3117 3115 3114 3112 3110 3109 3107 3106 3104 3102 3100 3098 3096 3095 3093 3092 3090 3088 3086 3084 3083 3081 3078 3076 3075 3073 3070 3068 3066 3064 3061 3059 3056 3053 3049
3126 3124 3123 3121 3120 3118 3116 3115 3113 3112 3110 3108 3107 3105 3103 3101 3100 3098 3096 3095 3093 3091 3089 3087 3085 3082 3081 3080 3078 3076 3074 3072 3071 3068 3066 3064 3062 3060 3057 3055 3052 3048
3123 3121 3120 3118 3117 3115 3113 3111 3110 3109 3107 3105 3103 3102 3101 3099 3097 3096 3095 3093 3091 3089 3087 3085 3082 3079 3079 3078 3076 3074 3072 3070 3068 3066 3064 3062 3059 3057 3055 3053 3051 3048